St. Thomas, VI

11:12 AM AST on June 23, 2017 (GMT -0400)
King

Weather History for TIST - October, 2013

Change the Weather History Date:

Tuesday, October 8, 2013

  Actual Average Record
Temperature  
Mean Temperature 84 °F 83 °F  
Max Temperature 87 °F 89 °F 96 °F (1987)
Min Temperature 80 °F 77 °F 70 °F (2002)
Degree Days  
Heating Degree Days 0 0  
Month to date heating degree days 0 0  
Since 1 July heating degree days 0 0  
Cooling Degree Days 19 18  
Month to date cooling degree days 159 144  
Year to date cooling degree days 4638 4703  
Growing Degree Days 34 (Base 50)    
Moisture  
Dew Point 78 °F    
Average Humidity 80    
Maximum Humidity 91    
Minimum Humidity 68    
Precipitation  
Precipitation 0.04 in 0.17 in 5.40 in (1977)
Month to date precipitation 0.57 1.32  
Year to date precipitation 35.00 27.05  
Sea Level Pressure  
Sea Level Pressure 29.96 in    
Wind  
Wind Speed 8 mph (SSE)    
Max Wind Speed 22 mph    
Max Gust Speed 28 mph    
Visibility 9 miles    
Events Rain    
T = Trace of Precipitation, MM = Missing Value Source: NWS Daily Summary

Daily Weather History Graph

Daily Weather History Graph

Search for Another Location

Airport or City:

Trip Planner

Search our weather history database for the weather conditions in past years. The results will help you decide how hot, cold, wet, or windy it might be!

Date:

Astronomy

Oct. 08, 2013 Rise Set
Actual Time 6:11 AM AST 6:02 PM AST
Civil Twilight 5:50 AM AST 6:24 PM AST
Nautical Twilight 5:24 AM AST 6:49 PM AST
Astronomical Twilight 4:59 AM AST 7:14 PM AST
Moon 9:32 AM AST (10/8) 9:06 PM AST (10/8)
Length of Visible Light 12h 34m
Length of Day
11h 50m
Waxing Crescent, 16% of the Moon is Illuminated
Oct 8
Waxing Crescent
Oct 11
First Quarter
Oct 18
Full
Oct 26
Last Quarter
Nov 3
New

Hourly Weather History & Observations

Time (AST) Temp. Heat Index Dew Point Humidity Pressure Visibility Wind Dir Wind Speed Gust Speed Precip Events Conditions
12:53 AM 84.0 °F 94.8 °F 78.1 °F 82% 29.96 in 10.0 mi SSE 8.1 mph - N/A   Partly Cloudy
1:53 AM 84.0 °F 94.8 °F 78.1 °F 82% 29.94 in 10.0 mi SE 6.9 mph - N/A   Partly Cloudy
2:53 AM 84.0 °F 94.8 °F 78.1 °F 82% 29.93 in 10.0 mi SE 8.1 mph - N/A   Partly Cloudy
3:53 AM 82.0 °F 91.0 °F 78.1 °F 88% 29.92 in 10.0 mi SE 8.1 mph - N/A   Scattered Clouds
4:53 AM 80.1 °F 85.4 °F 75.9 °F 87% 29.94 in 10.0 mi East 4.6 mph - N/A   Clear
5:28 AM 82.4 °F 92.4 °F 78.8 °F 89% 29.94 in 2.0 mi SE 6.9 mph - N/A   Clear
5:35 AM 82.4 °F 92.4 °F 78.8 °F 89% 29.94 in 10.0 mi SE 5.8 mph - N/A   Clear
5:53 AM 81.0 °F 87.9 °F 77.0 °F 88% 29.95 in 10.0 mi East 3.5 mph - N/A   Clear
6:04 AM 80.6 °F 87.1 °F 77.0 °F 89% 29.95 in 2.5 mi Calm Calm - N/A   Clear
6:11 AM 80.6 °F 87.1 °F 77.0 °F 89% 29.95 in 10.0 mi East 4.6 mph - N/A   Clear
6:53 AM 81.0 °F 88.6 °F 78.1 °F 91% 29.96 in 10.0 mi ESE 4.6 mph - 0.00 in Rain Light Rain
7:05 AM 80.6 °F 88.1 °F 78.8 °F 94% 29.97 in 10.0 mi SSW 12.7 mph 18.4 mph 0.04 in Rain Heavy Rain
7:15 AM 82.4 °F 92.4 °F 78.8 °F 89% 29.97 in 10.0 mi SSW 11.5 mph - 0.04 in   Overcast
7:53 AM 84.0 °F 96.0 °F 79.0 °F 85% 29.99 in 3.0 mi SSE 10.4 mph - 0.04 in   Mostly Cloudy
8:53 AM 84.9 °F 98.9 °F 80.1 °F 85% 29.99 in 10.0 mi South 6.9 mph - N/A   Scattered Clouds
10:53 AM 86.0 °F 98.3 °F 78.1 °F 77% 30.01 in 10.0 mi South 11.5 mph - N/A   Clear
11:42 AM 82.4 °F 92.4 °F 78.8 °F 89% - 1.8 mi South 6.9 mph - 0.00 in Rain Light Rain
11:53 AM 84.0 °F 94.8 °F 78.1 °F 82% 29.99 in 10.0 mi South 10.4 mph - 0.00 in   Mostly Cloudy
12:53 PM 86.0 °F 98.3 °F 78.1 °F 77% 29.98 in 10.0 mi SSE 8.1 mph - N/A   Scattered Clouds
1:53 PM 87.1 °F 99.8 °F 78.1 °F 74% 29.95 in 10.0 mi SSE 9.2 mph - N/A   Clear
2:21 PM 87.8 °F 102.5 °F 78.8 °F 75% 29.94 in 10.0 mi South 6.9 mph - N/A   Partly Cloudy
2:53 PM 87.1 °F 97.3 °F 75.9 °F 69% 29.95 in 3.0 mi SSE 8.1 mph - N/A   Clear
3:53 PM 86.0 °F 96.9 °F 77.0 °F 74% 29.94 in 10.0 mi South 6.9 mph - N/A   Clear
4:51 PM 82.4 °F 89.5 °F 75.2 °F 79% 29.93 in 10.0 mi SSW 6.9 mph 21.9 mph N/A   Mostly Cloudy
4:53 PM 84.0 °F 92.6 °F 75.9 °F 76% 29.94 in 10.0 mi SSW 4.6 mph - N/A   Mostly Cloudy
5:00 PM 84.2 °F 96.1 °F 78.8 °F 84% 29.93 in 10.0 mi South 5.8 mph - N/A   Mostly Cloudy
5:53 PM 84.9 °F 95.3 °F 77.0 °F 77% 29.95 in 10.0 mi SE 8.1 mph - N/A   Partly Cloudy
6:53 PM 84.0 °F 94.8 °F 78.1 °F 82% 29.96 in 10.0 mi SE 8.1 mph - N/A   Clear
8:53 PM 82.9 °F 91.8 °F 77.0 °F 82% 29.99 in 10.0 mi SE 13.8 mph - N/A   Partly Cloudy
9:53 PM 82.9 °F 91.8 °F 77.0 °F 82% 30.01 in 10.0 mi SE 10.4 mph - N/A   Partly Cloudy
10:53 PM 82.9 °F 91.8 °F 77.0 °F 82% 30.00 in 10.0 mi SSE 12.7 mph - N/A   Partly Cloudy
11:53 PM 82.9 °F 92.8 °F 78.1 °F 85% 29.98 in 10.0 mi SE 10.4 mph - N/A   Clear